天绘卫星 6B星 (TIANHUI 6B)

导读

TIANHUI 6B即天绘六号B星,是中国研制的对地观测卫星,于2023年3月10日在太原卫星发射中心,由长征四号丙运载火箭以“一箭双星”方式,同天绘六号A星一同送入预定轨道,发射任务取得圆满成功。该卫星由中国航天科技集团下属中国卫星有限公司研制,主要用于地理信息测绘、国土资源普查和科学试验研究等任务,将为相关领域发展提供可靠的数据支撑。

Basic Information
目录编号:
55839
目录名称:
TIANHUI 6B
国际标识:
2023-030D
轨道中心:
EARTH
卫星名称:
天绘卫星 6B星
卫星全名:
天绘卫星 6B星 (TIANHUI 6B)
卫星状态:
在轨 (已飞行1285 天)
发射日期:
2023-03-09 UTC
国别 :
中国 (CN)
星等 :
--
This satellite is enrolled in the Space Conjunction Data Service (SCDS) and the current flight risk assessment level is: No High Risk
Orbit Information
数据来源 国际轨道数据 AOE轨道数据
星历时间 2026-09-14T12:27:41+0800
5小时前
查看轨道信息
2026-09-12T02:00:00+0800
2天前
查看轨道信息
半长轴 7267.342km 7267.332km
偏心率 0.0002602 0.0002465
轨道倾角 99.012° 99.013°
近地点辐角 145.455° 149.659°
升交点赤经 264.325° 261.919°
平近点角 214.679° 168.687°
近地点 887.314km 887.403km
远地点 891.096km 890.987km
周期 102.760分钟 102.760分钟
每日圈数 14.013267 14.013296
Detailed Information
卫星平台:
CAST2000卫星平台
平衡模式:
三轴稳定
覆盖范围:
南北纬80°
运营商:
中国东方红卫星股份有限公司
运营商所在国:
中国
制造商(研发单位):
中国东方红卫星股份有限公司
制造商所在国:
中国
使用方式:
暂无
Satellite Introduction
天绘一号实现了中国测绘卫星从返回式胶片型到CCD传输型的跨越式发展,在中国首次实现了影像数据经过地面系统处理,无地面控制点条件下,与美国SRTM(航天飞机雷达地形测绘任务)相对精度12m/6m(平面/高程1σ)同等的技术水平,天绘二号采用CAST2000卫星平台,目前已发射01组、02组卫星。该卫星仍在工作。
2D Orbit Map
3D Orbit Map
Orbit Altitude Analysis Chart
Orbit Inclination Analysis Chart
Orbit Comprehensive Analysis Chart
View Comprehensive Chart
Conjunction Data List
Event ID Objects TCA Miss Dist (km) Collision Risk Probability Collision Risk Index (CRI) Action
CDM_260916-115202-984805-583921
2026-09-16T
11:52:50+0000
1.872 km
极远距离
3.33073E-6 低风险 0.45
CDM_260915-150803-037005-583922
2026-09-15T
15:08:12+0000
2.015 km
极远距离
1.803872E-6 低风险 0.4
Miss Distance Evolution Trend with All Objects Subscribe to Flight Safety Assessment
Collision Probability Evolution Trend with All Objects Subscribe to Flight Safety Assessment